Date,TemperatureHighF,TemperatureAvgF,TemperatureLowF,DewpointHighF,DewpointAvgF,DewpointLowF,HumidityHigh,HumidityAvg,HumidityLow,PressureMaxIn,PressureMinIn,WindSpeedMaxMPH,WindSpeedAvgMPH,GustSpeedMaxMPH,PrecipitationSumIn
2013-1-1,39,36,28,32,27,16,80,71,57,29.95,29.79,4,1,11,0.00
2013-1-2,30,26,21,20,16,13,76,66,61,30.11,29.94,7,1,11,0.00
2013-1-3,30,25,21,21,18,16,82,76,59,30.15,30.03,6,1,8,0.00
2013-1-4,39,30,23,28,23,19,88,75,58,30.03,29.90,3,0,7,0.00
2013-1-5,42,33,27,28,24,21,84,70,55,30.24,29.94,2,0,14,0.00
2013-1-6,47,36,30,37,31,25,96,84,64,30.19,29.94,3,0,5,0.00
2013-1-7,43,36,26,34,28,22,94,76,54,30.37,30.00,3,1,9,0.00
2013-1-8,50,37,28,38,33,25,96,85,59,30.41,30.31,3,0,9,0.00
2013-1-9,49,40,31,43,36,29,96,86,70,30.36,30.11,2,0,6,0.00
2013-1-10,47,41,34,36,29,27,77,64,46,30.51,30.17,3,1,11,0.00
2013-1-11,47,39,31,46,35,28,95,86,73,30.51,30.10,2,0,8,0.00
2013-1-12,48,44,42,47,43,41,96,96,95,30.15,30.03,4,0,11,0.00
2013-1-13,49,44,40,48,43,39,97,96,95,30.14,30.00,2,0,5,0.00
2013-1-14,57,49,36,56,46,34,96,89,70,30.25,29.92,6,1,8,0.00
2013-1-15,38,36,34,34,32,30,97,86,76,30.30,30.19,3,0,7,0.00
2013-1-16,36,35,33,35,34,32,96,96,89,30.20,29.75,5,0,8,0.00
2013-1-17,42,37,33,34,32,25,96,82,65,30.06,29.88,4,1,11,0.00
2013-1-18,33,26,21,25,14,9,75,62,47,30.46,29.99,7,1,11,0.00
2013-1-19,49,39,21,38,31,14,86,73,59,30.39,29.93,10,2,15,0.00
2013-1-20,56,44,31,38,30,16,84,60,32,29.98,29.65,5,2,15,0.00
2013-1-21,32,28,22,26,18,11,95,67,51,30.08,29.78,4,0,10,0.00
2013-1-22,26,20,13,24,7,-3,93,59,42,30.12,29.77,8,2,16,0.00
2013-1-23,18,14,9,2,0,-3,65,54,45,30.19,30.11,6,1,12,0.00
2013-1-24,22,14,8,7,3,0,80,61,43,30.32,30.09,8,1,16,0.00
2013-1-25,25,17,10,18,9,4,93,72,52,30.35,30.02,1,0,7,0.00
2013-1-26,25,20,15,16,12,6,94,71,54,30.30,29.99,9,1,13,0.00
2013-1-27,31,22,12,16,12,7,88,67,44,30.46,30.30,4,1,11,0.00
2013-1-28,35,29,21,34,25,14,95,85,64,30.44,29.97,2,0,6,0.00
2013-1-29,46,37,33,41,36,32,96,94,83,30.13,29.96,2,0,5,0.00
2013-1-30,55,50,40,54,48,39,96,94,94,30.09,29.45,6,2,14,0.00
2013-1-31,55,41,29,54,27,15,96,57,44,29.72,29.17,8,2,18,0.00
2013-2-1,30,28,23,17,13,7,66,53,41,30.16,29.72,5,2,18,0.00
2013-2-2,31,25,18,22,14,11,92,63,48,30.26,30.04,4,0,10,0.00
2013-2-3,29,25,20,23,20,17,95,83,62,30.04,29.74,2,0,6,0.00
2013-2-4,31,25,21,22,14,11,90,64,48,29.95,29.75,7,1,15,0.00
2013-2-5,30,27,24,29,25,15,95,90,67,29.95,29.88,2,0,7,0.00
2013-2-6,38,32,27,30,24,14,95,75,54,30.31,29.88,7,1,15,0.00
2013-2-7,32,27,23,24,14,8,81,59,47,30.48,30.31,4,0,7,0.00
2013-2-8,34,31,24,32,29,23,96,92,80,30.33,29.51,8,1,18,0.00
2013-2-9,26,24,19,24,20,11,96,86,64,30.24,29.61,0,0,0,0.00
2013-2-10,35,22,13,22,14,7,92,70,45,30.43,30.24,0,0,1,0.00
2013-2-11,44,37,24,42,36,22,95,94,91,30.32,29.64,7,1,13,0.00
2013-2-12,44,38,30,38,32,26,96,80,59,29.93,29.66,6,1,14,0.00
2013-2-13,44,34,24,30,27,22,94,78,56,29.91,29.66,1,0,5,0.00
2013-2-14,44,35,26,34,30,25,96,83,54,29.98,29.67,1,0,6,0.00
2013-2-15,48,38,30,41,36,29,97,90,74,30.00,29.90,4,0,8,0.00
2013-2-16,39,34,28,37,29,23,95,83,65,29.92,29.66,8,1,11,0.00
2013-2-17,31,25,16,26,12,4,95,61,39,29.86,29.55,12,3,20,0.00
2013-2-18,32,22,16,16,10,5,68,59,44,30.19,29.86,11,3,21,0.00
2013-2-19,47,37,25,42,33,16,95,86,67,30.19,29.63,6,1,10,0.00
2013-2-20,40,31,24,39,20,13,95,65,52,29.90,29.65,9,2,17,0.00
2013-2-21,33,26,21,19,16,14,75,65,55,30.22,29.88,8,3,22,0.00
2013-2-22,38,31,23,31,25,17,87,78,65,30.36,30.21,3,0,11,0.00
2013-2-23,41,37,34,40,35,30,95,93,86,30.26,29.77,4,1,11,0.00
2013-2-24,42,37,30,39,34,29,96,91,77,29.89,29.69,4,2,12,0.00
2013-2-25,45,36,26,34,30,25,95,79,55,30.21,29.89,3,0,7,0.00
2013-2-26,43,38,35,36,34,31,95,86,68,30.28,29.94,8,0,11,0.00
2013-2-27,47,43,36,45,41,35,95,94,91,29.94,29.49,6,2,19,0.00
2013-2-28,47,40,36,43,38,34,95,92,79,29.61,29.51,2,0,6,0.00
2013-3-1,44,39,34,36,33,30,95,81,63,29.72,29.55,6,1,10,0.00
2013-3-2,40,36,32,32,28,27,87,75,65,29.72,29.64,5,1,9,0.00
2013-3-3,36,32,29,28,25,23,86,75,62,29.68,29.61,9,2,12,0.00
2013-3-4,41,33,28,26,23,20,76,68,54,29.82,29.68,5,2,17,0.00
2013-3-5,46,37,30,32,28,22,83,69,51,30.00,29.82,6,1,13,0.00
2013-3-6,40,37,34,37,34,31,94,87,77,29.98,29.81,15,3,23,0.00
2013-3-7,36,33,31,33,31,30,95,94,87,29.99,29.84,12,2,20,0.00
2013-3-8,37,33,30,34,31,29,95,92,76,30.11,29.92,3,0,13,0.00
2013-3-9,51,39,31,33,29,26,94,69,38,30.31,30.11,6,1,10,0.00
2013-3-10,49,36,28,40,33,27,95,87,70,30.37,30.29,2,0,5,0.00
2013-3-11,53,44,36,47,41,34,95,90,78,30.30,30.09,3,0,8,0.00
2013-3-12,52,49,45,50,47,43,95,94,92,30.10,29.68,11,3,16,0.00
2013-3-13,49,42,33,42,34,27,96,73,49,29.85,29.76,3,1,12,0.00
2013-3-14,38,33,29,31,19,13,81,57,41,29.89,29.80,9,3,19,0.00
2013-3-15,45,36,28,32,21,12,73,55,37,29.92,29.69,5,1,14,0.00
2013-3-16,40,34,31,31,28,24,95,78,62,29.86,29.74,5,0,9,0.00
2013-3-17,36,31,25,31,23,16,95,73,53,30.27,29.86,6,1,10,0.00
2013-3-18,38,31,24,31,20,14,94,65,47,30.38,30.04,3,0,10,0.00
2013-3-19,39,36,32,37,34,31,95,95,93,30.04,29.62,5,2,13,0.00
2013-3-20,45,36,28,33,24,22,95,63,43,29.84,29.74,6,1,16,0.00
2013-3-21,35,31,26,29,27,25,95,86,69,29.81,29.61,5,1,9,0.00
2013-3-22,40,33,25,25,22,18,82,64,47,29.83,29.66,9,1,12,0.00
2013-3-23,45,37,28,27,24,22,79,60,43,29.87,29.74,9,2,18,0.00
2013-3-24,45,37,28,30,25,21,79,64,49,29.90,29.69,3,1,10,0.00
2013-3-25,40,36,33,35,32,29,94,83,68,29.72,29.41,8,1,14,0.00
2013-3-26,51,40,33,34,32,30,94,73,47,29.82,29.52,4,1,10,0.00
2013-3-27,53,42,30,31,29,26,87,62,39,29.91,29.81,5,1,12,0.00
2013-3-28,49,42,35,37,33,29,83,72,61,30.06,29.91,4,1,10,0.00
2013-3-29,54,46,38,35,33,30,78,61,42,30.09,30.01,4,1,11,0.00
2013-3-30,56,44,33,36,32,26,89,64,32,30.12,30.04,5,1,11,0.00
2013-3-31,55,44,33,43,37,-100,94,81,55,30.11,29.63,5,1,12,0.00
2013-4-1,59,47,38,50,42,19,95,83,45,29.84,29.60,6,1,12,0.00
2013-4-2,38,33,29,21,20,18,70,58,45,29.97,29.84,6,2,13,0.00
2013-4-5,59,51,43,30,26,24,52,40,30,29.91,29.71,6,3,11,0.00
2013-4-6,50,40,34,30,24,12,77,54,24,30.30,29.93,5,1,10,0.00
2013-4-7,52,43,32,45,38,29,94,81,62,30.29,30.02,10,2,17,0.00
2013-4-8,69,54,42,52,46,40,94,77,46,30.06,29.97,6,1,8,0.00
2013-4-9,80,63,48,57,48,44,93,64,32,30.02,29.91,6,1,21,0.00
2013-4-10,74,57,49,58,50,45,93,79,56,29.93,29.80,3,1,14,0.00
2013-4-11,61,52,45,53,48,39,94,86,70,30.04,29.77,4,1,11,0.00
2013-4-12,46,42,39,40,38,36,94,87,74,30.05,29.68,6,2,17,0.00
2013-4-13,57,45,37,42,39,35,94,80,53,29.96,29.70,4,1,10,0.00
2013-4-14,58,49,43,47,38,31,94,67,42,30.20,29.95,9,2,14,0.00
2013-4-15,58,47,38,40,35,30,92,65,48,30.37,30.20,2,0,7,0.00
2013-4-16,61,51,40,54,47,38,94,86,73,30.37,30.13,8,2,13,0.00
2013-4-17,67,58,48,53,44,36,93,65,33,30.27,30.10,4,1,11,0.00
2013-4-18,61,52,43,52,45,41,93,79,54,30.35,30.12,3,1,10,0.00
2013-4-19,67,58,54,63,56,52,94,92,85,30.12,29.69,11,3,19,0.00
2013-4-20,59,53,46,57,42,33,95,70,42,30.22,29.68,7,1,16,0.00
2013-4-21,53,43,35,33,28,24,77,56,34,30.61,30.22,6,1,12,0.00
2013-4-22,56,45,34,38,35,31,92,70,45,30.64,30.49,5,1,12,0.00
2013-4-23,47,42,40,43,39,34,93,87,78,30.49,30.05,5,2,13,0.00
2013-4-24,65,50,42,51,45,40,94,84,60,30.05,29.88,5,2,11,0.00
2013-4-25,63,53,45,50,39,29,94,63,29,30.25,29.88,6,1,12,0.00
2013-4-26,65,52,40,45,40,37,94,65,38,30.38,30.25,4,0,7,0.00
2013-4-27,65,52,41,46,38,33,91,62,31,30.40,30.29,3,0,9,0.00
2013-4-28,66,54,42,51,42,35,94,70,36,30.31,30.22,4,1,8,0.00
2013-4-29,62,55,51,49,47,42,88,75,58,30.24,30.20,5,0,9,0.00
2013-4-30,68,57,46,51,40,30,88,58,29,30.32,30.20,3,0,9,0.00
2013-5-1,71,54,40,51,43,32,93,68,49,30.47,30.31,4,0,9,0.00
2013-5-2,71,56,43,52,46,41,94,70,45,30.45,30.32,2,0,6,0.00
2013-5-3,65,54,45,50,44,39,92,71,44,30.45,30.35,10,1,13,0.00
2013-5-4,68,52,42,51,44,39,94,76,49,30.36,30.25,4,0,10,0.00
2013-5-5,63,49,40,47,42,38,93,79,54,30.29,30.22,3,0,9,0.00
2013-5-6,70,55,43,56,48,41,93,79,59,30.25,30.15,2,0,9,0.00
2013-5-7,76,59,46,64,54,44,93,85,65,30.16,30.09,2,0,6,0.00
2013-5-8,65,59,53,63,57,51,93,93,91,30.13,30.00,2,0,11,0.00
2013-5-9,64,57,52,61,55,50,94,93,88,30.01,29.86,2,0,5,0.00
2013-5-10,80,63,51,62,54,-100,96,79,52,29.98,29.92,2,0,5,0.00
2013-5-11,65,60,57,63,58,55,94,93,88,29.92,29.69,3,0,8,0.00
2013-5-12,71,61,53,57,48,-100,95,69,35,29.88,29.64,3,0,8,0.00
2013-5-13,58,50,42,37,34,30,77,55,42,30.06,29.88,6,0,10,0.00
2013-5-14,58,49,40,43,37,31,86,64,37,30.08,30.01,2,0,8,0.00
2013-5-15,62,53,42,56,49,40,94,85,57,30.06,29.68,5,1,9,0.00
2013-5-16,77,58,54,59,34,-100,94,75,45,29.80,29.69,1,0,5,0.00
2013-5-17,70,60,52,55,42,-100,91,64,41,30.18,29.79,3,0,8,0.00
2013-5-18,70,59,51,56,52,47,93,79,53,30.30,30.18,2,0,7,0.00
2013-5-19,57,56,55,55,54,51,94,92,83,30.33,30.18,0,0,8,0.00
2013-5-20,76,65,57,70,62,55,95,91,79,30.18,29.97,1,0,4,0.00
2013-5-21,81,69,61,73,65,59,94,88,74,29.97,29.85,3,0,5,0.00
2013-5-22,77,65,56,70,62,54,95,92,79,29.93,29.86,1,0,5,0.00
2013-5-23,72,66,63,69,64,61,95,93,89,29.92,29.80,3,1,11,0.00
2013-5-24,66,58,47,65,57,46,96,94,89,29.87,29.67,5,1,11,0.00
2013-5-25,47,46,44,46,44,43,96,95,86,29.92,29.81,6,1,13,0.00
2013-5-26,64,53,46,45,43,41,88,70,48,30.17,29.88,6,1,12,0.00
2013-5-27,70,58,46,52,45,40,90,64,37,30.21,30.13,3,0,8,0.00
2013-5-28,70,58,51,56,52,48,95,84,50,30.21,30.14,1,0,2,0.00
2013-5-29,74,64,56,69,62,55,96,91,82,30.14,30.01,1,0,3,0.00
2013-5-30,88,75,63,74,68,61,95,79,59,30.11,30.06,2,0,3,0.00
2013-5-31,90,75,65,76,68,63,94,79,58,30.11,30.00,2,0,4,0.00
2013-6-1,83,73,65,73,68,63,94,84,71,30.02,29.93,3,1,6,0.00
2013-6-2,78,70,64,70,64,-100,94,88,77,29.94,29.80,4,1,7,0.00
2013-6-3,73,67,64,70,65,62,95,94,91,29.85,29.79,1,0,4,0.00
2013-6-4,73,64,54,64,52,47,92,66,45,30.07,29.83,3,0,8,0.00
2013-6-5,71,63,51,55,51,47,93,69,44,30.19,30.07,1,0,3,0.00
2013-6-6,70,63,56,61,57,53,95,81,56,30.15,30.02,2,0,4,0.00
2013-6-7,62,60,57,61,58,56,95,94,93,30.02,29.65,3,0,9,0.00
2013-6-8,75,64,54,68,62,53,97,91,79,30.03,29.52,1,0,8,0.00
2013-6-9,77,69,59,65,62,58,95,79,61,30.17,30.02,1,0,5,0.00
2013-6-10,72,64,60,68,62,59,95,93,84,30.16,29.86,4,0,7,0.00
2013-6-11,78,70,64,71,67,63,96,92,76,29.86,29.59,3,0,6,0.00
2013-6-12,74,68,62,63,58,55,92,72,58,29.84,29.65,5,1,12,0.00
2013-6-13,64,61,55,60,58,54,95,91,77,29.82,29.48,2,0,11,0.00
2013-6-14,69,58,52,60,55,51,96,89,72,29.83,29.47,7,1,11,0.00
2013-6-15,78,67,58,62,58,52,95,74,46,29.97,29.83,4,0,8,0.00
2013-6-16,78,68,59,68,62,57,94,82,56,29.97,29.76,2,0,4,0.00
2013-6-17,82,74,65,72,68,63,95,83,65,29.92,29.83,3,0,4,0.00
2013-6-18,81,70,63,73,66,61,95,88,69,29.89,29.82,2,0,6,0.00
2013-6-19,74,65,58,63,58,53,95,78,49,30.14,29.85,3,0,8,0.00
2013-6-20,76,65,56,62,58,54,94,78,57,30.26,30.14,2,0,5,0.00
2013-6-22,80,74,67,68,63,60,91,71,57,30.25,30.15,1,0,3,0.00
2013-6-23,83,74,64,74,68,61,94,83,69,30.18,30.08,2,0,4,0.00
2013-6-24,90,79,71,78,72,67,95,82,63,30.08,29.94,2,0,12,0.00
2013-6-25,91,79,70,76,72,66,92,78,57,29.99,29.79,3,0,5,0.00
2013-6-26,85,79,74,74,72,69,91,78,65,29.83,29.76,1,0,5,0.00
2013-6-27,83,75,71,76,72,69,94,90,76,29.82,29.61,1,0,6,0.00
2013-6-28,81,76,72,76,73,70,95,90,82,29.61,29.50,2,1,6,0.00
2013-6-29,79,74,68,74,71,67,95,91,82,29.71,29.49,2,0,4,0.00
2013-6-30,79,72,70,75,70,68,95,95,89,29.93,29.71,2,0,6,0.00
2013-7-1,75,73,72,74,71,70,97,96,95,30.07,29.92,2,0,4,0.00
2013-7-2,78,74,72,75,73,71,96,95,90,30.19,30.07,2,0,5,0.00
2013-7-3,83,75,70,77,73,69,96,93,82,30.25,30.18,1,0,3,0.00
2013-7-4,86,77,72,79,74,71,97,90,79,30.25,30.17,2,0,4,0.00
2013-7-5,87,79,72,79,75,71,96,88,76,30.21,30.10,2,0,4,0.00
2013-7-6,90,80,74,80,75,72,96,86,70,30.13,30.01,1,0,3,0.00
2013-7-7,89,82,75,79,76,73,95,83,67,30.04,29.93,2,0,3,0.00
2013-7-8,87,79,72,76,71,-100,92,81,65,30.03,29.93,3,0,5,0.00
2013-7-9,85,78,71,76,73,69,94,85,67,30.06,29.99,2,0,4,0.00
2013-7-10,85,77,74,79,72,-100,96,88,80,30.02,29.81,2,0,5,0.00
2013-7-11,81,76,73,76,74,69,96,92,79,29.91,29.80,0,0,2,0.00
2013-7-12,76,72,67,73,69,66,96,91,87,30.10,29.91,2,0,7,0.00
2013-7-13,81,74,68,79,73,67,97,96,93,30.28,30.10,1,0,4,0.00
2013-7-14,87,79,73,79,75,72,97,89,73,30.32,30.23,2,0,6,0.00
2013-7-15,91,82,75,80,76,73,95,83,66,30.24,30.12,1,0,6,0.00
2013-7-16,91,82,74,75,73,72,94,77,57,30.17,30.11,2,0,6,0.00
2013-7-17,91,82,74,79,75,72,94,80,59,30.18,30.07,1,0,4,0.00
2013-7-18,95,84,76,80,77,73,92,79,60,30.07,29.96,2,0,5,0.00
2013-7-19,94,85,80,83,79,77,94,84,70,29.96,29.80,3,1,6,0.00
2013-7-20,90,82,76,79,76,-100,96,83,69,29.83,29.71,2,0,6,0.00
2013-7-21,84,78,72,74,71,67,95,81,61,29.96,29.83,2,0,4,0.00
2013-7-22,86,77,72,78,74,70,96,91,77,29.96,29.83,1,0,4,0.00
2013-7-23,84,77,70,78,75,69,97,92,80,29.83,29.55,3,0,5,0.00
2013-7-24,82,75,70,75,71,63,96,87,73,29.90,29.59,2,0,7,0.00
2013-7-25,71,64,61,63,60,56,97,87,76,30.03,29.90,3,1,8,0.00
2013-7-26,76,66,61,69,64,60,97,92,75,30.04,29.94,3,0,5,0.00
2013-7-27,80,73,66,71,68,65,97,87,65,30.06,29.98,2,0,3,0.00
2013-7-28,79,72,67,73,69,66,97,90,70,30.00,29.94,1,0,4,0.00
2013-7-29,85,76,68,75,71,62,97,85,61,30.07,29.95,2,0,4,0.00
2013-7-30,79,71,63,64,62,60,93,74,56,30.14,30.07,4,0,6,0.00
2013-7-31,79,71,63,67,64,61,96,80,60,30.14,30.05,2,0,4,0.00
2013-8-1,76,69,66,71,67,65,96,92,79,30.05,29.84,2,0,4,0.00
2013-8-2,82,73,68,70,68,63,97,84,56,29.90,29.78,2,0,7,0.00
2013-8-3,77,71,68,70,68,65,94,88,76,29.91,29.83,2,0,3,0.00
2013-8-4,77,70,63,67,63,60,96,78,55,29.93,29.83,2,0,11,0.00
2013-8-5,74,67,59,62,56,51,89,68,49,30.04,29.93,3,0,10,0.00
2013-8-6,78,70,61,66,62,60,96,78,58,30.13,30.03,3,0,5,0.00
2013-8-7,77,70,62,69,65,59,95,84,68,30.15,30.09,3,0,5,0.00
2013-8-8,78,72,68,74,71,67,96,94,85,30.10,30.02,3,1,7,0.00
2013-8-9,80,75,73,77,74,72,96,95,90,30.04,29.81,4,1,9,0.00
2013-8-10,81,75,68,74,67,63,97,79,59,30.03,29.83,1,0,7,0.00
2013-8-11,78,70,60,65,60,55,85,71,51,30.10,30.03,4,0,6,0.00
2013-8-21,87,76,67,72,68,63,96,80,48,30.16,30.06,2,0,5,0.00
2013-8-22,80,73,71,75,71,69,97,94,85,30.06,29.86,1,0,3,0.00
2013-8-23,78,72,67,70,66,61,97,81,60,30.08,29.85,5,0,7,0.00
2013-8-24,75,68,61,65,59,55,95,76,50,30.33,30.08,2,0,6,0.00
2013-8-25,80,68,59,65,59,-100,97,75,49,30.37,30.23,2,0,4,0.00
2013-8-26,80,72,68,71,65,60,96,80,66,30.23,29.92,2,0,4,0.00
2013-8-27,81,72,69,75,70,68,98,94,81,29.92,29.80,4,0,10,0.00
2013-9-24,67,56,45,53,48,43,94,76,55,30.03,29.85,1,0,6,0.00
2013-9-25,68,58,49,55,51,48,97,79,53,29.93,29.87,2,0,4,0.00
2013-9-26,66,59,53,58,55,52,97,87,69,30.09,29.92,2,0,5,0.00
2013-9-27,63,58,51,57,54,50,97,87,73,30.25,30.09,2,0,5,0.00
2013-9-28,70,61,53,59,56,52,97,85,65,30.31,30.24,1,0,6,0.00
2013-9-29,66,58,51,57,50,-100,97,80,43,30.24,30.08,3,0,6,0.00
2013-9-30,68,59,50,60,55,49,98,88,61,30.08,29.97,1,0,4,0.00
2013-10-18,65,61,54,63,53,47,97,77,57,29.95,29.67,3,0,10,0.00
2013-10-19,66,56,47,57,49,44,96,79,53,29.98,29.75,2,0,4,0.00
2013-10-20,60,54,48,58,44,-100,96,73,51,30.04,29.72,3,0,12,0.00
2013-10-21,66,54,43,50,44,40,91,71,45,30.14,30.00,2,0,4,0.00
2013-10-22,68,58,50,55,51,47,96,77,55,30.00,29.73,1,0,6,0.00
2013-10-23,52,47,43,47,41,38,89,80,64,29.79,29.60,2,0,5,0.00
2013-10-24,54,46,39,41,35,30,92,68,47,29.96,29.70,3,0,8,0.00
2013-11-29,37,31,25,25,21,17,81,66,56,30.69,30.44,4,0,11,0.00
2013-11-30,37,29,21,34,21,-100,88,73,51,30.73,30.37,1,0,5,0.00
2013-12-1,50,43,37,46,41,34,96,92,87,30.37,29.99,2,0,6,0.00
2013-12-2,47,40,35,43,38,34,96,93,86,29.99,29.87,1,0,4,0.00
2013-12-3,50,40,35,41,37,34,96,88,64,29.98,29.85,2,0,5,0.00
2013-12-4,53,42,33,44,38,32,96,88,65,30.13,29.98,1,0,6,0.00
2013-12-5,59,54,45,57,52,44,95,95,93,30.13,29.95,3,0,6,0.00
2013-12-13,33,26,19,21,16,8,78,64,54,30.30,30.08,5,1,12,0.00
2013-12-14,39,25,20,38,21,-100,96,88,77,30.48,29.86,5,1,15,0.00
2013-12-15,44,36,31,43,33,24,96,90,76,29.86,29.41,6,1,13,0.00
2013-12-16,31,26,19,25,16,12,84,65,53,30.19,29.80,7,1,13,0.00
2013-12-17,33,25,18,32,22,12,96,88,68,30.20,29.88,3,0,10,0.00
2013-12-18,34,27,22,27,24,21,95,86,71,30.13,29.86,5,1,10,0.00
2013-12-19,46,35,23,36,28,21,91,78,57,30.14,30.00,2,0,9,0.00